,,PA_Meas_PMT16A,,PR_Meas_QMR101_102,,RH_Meas_QMH101,,SR_Meas_QMS101,,TA_Meas_QMH101,,GenWind,,GenWind,
time,status,PA,status,PR,status,RH,status,SR,status,TA,status,DirAvg,status,SpdAvg,
2012-06-15, 00:00:04,VALID,918.311,VALID,0,VALID,94.1111,VALID,0,VALID,17.7157,VALID,135,VALID,0,
2012-06-15, 00:01:04,VALID,918.312,VALID,0,VALID,94.0806,VALID,0,VALID,17.6559,VALID,135,VALID,0,
2012-06-15, 00:02:04,VALID,918.329,VALID,0,VALID,94.073,VALID,0,VALID,17.6572,VALID,135,VALID,0,
2012-06-15, 00:03:04,VALID,918.295,VALID,0,VALID,93.9891,VALID,0,VALID,17.6364,VALID,135,VALID,0,
2012-06-15, 00:04:04,VALID,918.308,VALID,0,VALID,93.9967,VALID,0,VALID,17.6182,VALID,135,VALID,0,
2012-06-15, 00:05:04,VALID,918.304,VALID,0,VALID,93.9891,VALID,0,VALID,17.6572,VALID,135,VALID,0,
2012-06-15, 00:06:04,VALID,918.323,VALID,0,VALID,94.0806,VALID,0,VALID,17.6572,VALID,136,VALID,0,
2012-06-15, 00:07:04,VALID,918.33,VALID,0,VALID,93.9205,VALID,0,VALID,17.6767,VALID,135,VALID,0,
2012-06-15, 00:08:04,VALID,918.313,VALID,0,VALID,94.0577,VALID,0,VALID,17.7157,VALID,135,VALID,0,
2012-06-15, 00:09:04,VALID,918.322,VALID,0,VALID,93.8366,VALID,0,VALID,17.7352,VALID,135,VALID,0,
2012-06-15, 00:10:04,VALID,918.324,VALID,0,VALID,93.5469,VALID,0,VALID,17.6962,VALID,135,VALID,0,
2012-06-15, 00:11:04,VALID,918.329,VALID,0,VALID,93.3716,VALID,0,VALID,17.717,VALID,135,VALID,0,
2012-06-15, 00:12:04,VALID,918.338,VALID,0,VALID,93.4021,VALID,0,VALID,17.6572,VALID,109,VALID,0,
2012-06-15, 00:13:04,VALID,918.343,VALID,0,VALID,93.5088,VALID,0,VALID,17.6767,VALID,130,VALID,0,
2012-06-15, 00:14:04,VALID,918.344,VALID,0,VALID,93.3792,VALID,0,VALID,17.6377,VALID,124,VALID,0,
2012-06-15, 00:15:04,VALID,918.372,VALID,0,VALID,93.2496,VALID,0,VALID,17.6182,VALID,124,VALID,0,
2012-06-15, 00:16:04,VALID,918.348,VALID,0,VALID,93.2954,VALID,0,VALID,17.5792,VALID,119,VALID,0,
2012-06-15, 00:17:04,VALID,918.346,VALID,0,VALID,93.3106,VALID,0,VALID,17.5779,VALID,119,VALID,0,
2012-06-15, 00:18:04,VALID,918.344,VALID,0,VALID,93.2877,VALID,0,VALID,17.5598,VALID,119,VALID,0,
2012-06-15, 00:19:04,VALID,918.341,VALID,0,VALID,93.2191,VALID,0,VALID,17.5208,VALID,119,VALID,0,
2012-06-15, 00:20:04,VALID,918.351,VALID,0,VALID,93.4326,VALID,0.107441,VALID,17.5,VALID,119,VALID,0,
2012-06-15, 00:21:04,VALID,918.363,VALID,0,VALID,93.242,VALID,0,VALID,17.5013,VALID,120,VALID,0,
2012-06-15, 00:22:04,VALID,918.357,VALID,0,VALID,93.425,VALID,0.107441,VALID,17.5208,VALID,119,VALID,0,
2012-06-15, 00:23:04,VALID,918.349,VALID,0,VALID,93.425,VALID,0,VALID,17.5208,VALID,120,VALID,0,
2012-06-15, 00:24:04,VALID,918.31,VALID,0,VALID,93.3716,VALID,0,VALID,17.5221,VALID,120,VALID,0,
2012-06-15, 00:25:04,VALID,918.336,VALID,0,VALID,93.2268,VALID,0,VALID,17.4818,VALID,119,VALID,0,
2012-06-15, 00:26:04,VALID,918.305,VALID,0,VALID,93.3487,VALID,0,VALID,17.5013,VALID,120,VALID,0,
2012-06-15, 00:27:04,VALID,918.301,VALID,0,VALID,93.3259,VALID,0,VALID,17.5013,VALID,136,VALID,0,
2012-06-15, 00:28:04,VALID,918.294,VALID,0,VALID,93.0438,VALID,0,VALID,17.4623,VALID,127,VALID,0,
2012-06-15, 00:29:04,VALID,918.271,VALID,0,VALID,93.181,VALID,0,VALID,17.4623,VALID,127,VALID,0,
2012-06-15, 00:30:04,VALID,918.26,VALID,0,VALID,93.242,VALID,0,VALID,17.4831,VALID,139,VALID,0,
2012-06-15, 00:31:04,VALID,918.238,VALID,0,VALID,93.2039,VALID,0,VALID,17.4233,VALID,138,VALID,0,
2012-06-15, 00:32:04,VALID,918.203,VALID,0,VALID,93.4402,VALID,0,VALID,17.4636,VALID,138,VALID,0,
2012-06-15, 00:33:04,VALID,918.223,VALID,0,VALID,93.4783,VALID,0,VALID,17.4233,VALID,138,VALID,0,
2012-06-15, 00:34:04,VALID,918.177,VALID,0,VALID,93.4707,VALID,0,VALID,17.4233,VALID,124,VALID,0,
2012-06-15, 00:35:04,VALID,918.178,VALID,0,VALID,93.5088,VALID,0,VALID,17.4233,VALID,112,VALID,0,
2012-06-15, 00:36:04,VALID,918.156,VALID,0,VALID,93.3411,VALID,0,VALID,17.4428,VALID,112,VALID,0,
2012-06-15, 00:37:04,VALID,918.189,VALID,0,VALID,93.2801,VALID,0,VALID,17.4623,VALID,131,VALID,0,
2012-06-15, 00:38:04,VALID,918.17,VALID,0,VALID,93.1505,VALID,0,VALID,17.5013,VALID,124,VALID,0,
2012-06-15, 00:39:04,VALID,918.149,VALID,0,VALID,92.7617,VALID,0,VALID,17.4818,VALID,124,VALID,0,
2012-06-15, 00:40:04,VALID,918.135,VALID,0,VALID,92.8151,VALID,0,VALID,17.5013,VALID,132,VALID,0,
2012-06-15, 00:41:04,VALID,918.123,VALID,0,VALID,92.8151,VALID,0,VALID,17.5208,VALID,132,VALID,0,
2012-06-15, 00:42:04,VALID,918.115,VALID,0,VALID,92.6779,VALID,0,VALID,17.5013,VALID,150,VALID,0,
2012-06-15, 00:43:04,VALID,918.102,VALID,0,VALID,92.6397,VALID,0,VALID,17.5208,VALID,158,VALID,0,
2012-06-15, 00:44:04,VALID,918.087,VALID,0,VALID,92.7236,VALID,0.107441,VALID,17.5792,VALID,127,VALID,0,
2012-06-15, 00:45:04,VALID,918.057,VALID,0,VALID,92.5102,VALID,0,VALID,17.5792,VALID,152,VALID,0,
2012-06-15, 00:46:04,VALID,918.01,VALID,0,VALID,92.2433,VALID,0,VALID,17.5987,VALID,132,VALID,0,
2012-06-15, 00:47:04,VALID,917.981,VALID,0,VALID,92.1214,VALID,0,VALID,17.6377,VALID,138,VALID,0.00351562,
2012-06-15, 00:48:04,VALID,917.975,VALID,0,VALID,91.946,VALID,0,VALID,17.6767,VALID,143,VALID,0,
2012-06-15, 00:49:04,VALID,917.952,VALID,0,VALID,91.603,VALID,0,VALID,17.6962,VALID,140,VALID,0,
2012-06-15, 00:50:04,VALID,917.951,VALID,0,VALID,91.6868,VALID,0,VALID,17.756,VALID,138,VALID,0,
2012-06-15, 00:51:04,VALID,917.939,VALID,0,VALID,91.5115,VALID,0,VALID,17.7741,VALID,138,VALID,0,
2012-06-15, 00:52:04,VALID,917.914,VALID,0,VALID,91.237,VALID,0,VALID,17.8131,VALID,149,VALID,0,
2012-06-15, 00:53:04,VALID,917.941,VALID,0,VALID,90.9016,VALID,0,VALID,17.8326,VALID,145,VALID,0,
2012-06-15, 00:54:04,VALID,917.92,VALID,0,VALID,90.6805,VALID,0,VALID,17.8326,VALID,143,VALID,0,
2012-06-15, 00:55:04,VALID,917.888,VALID,0,VALID,90.7034,VALID,0,VALID,17.8521,VALID,142,VALID,0,
2012-06-15, 00:56:04,VALID,917.865,VALID,0,VALID,90.5814,VALID,0,VALID,17.8535,VALID,125,VALID,0,
2012-06-15, 00:57:04,VALID,917.845,VALID,0,VALID,90.5281,VALID,0,VALID,17.8521,VALID,130,VALID,0,
2012-06-15, 00:58:04,VALID,917.845,VALID,0,VALID,90.429,VALID,0,VALID,17.8911,VALID,124,VALID,0,
2012-06-15, 00:59:04,VALID,917.816,VALID,0,VALID,90.185,VALID,0,VALID,17.9496,VALID,124,VALID,0,
2012-06-15, 01:00:04,VALID,917.822,VALID,0,VALID,89.9258,VALID,0,VALID,17.9872,VALID,124,VALID,0,
2012-06-15, 01:01:04,VALID,917.773,VALID,0,VALID,89.7124,VALID,0,VALID,18.008,VALID,124,VALID,0,
2012-06-15, 01:02:04,VALID,917.798,VALID,0,VALID,89.3312,VALID,0,VALID,17.9691,VALID,124,VALID,0,
2012-06-15, 01:03:04,VALID,917.774,VALID,0,VALID,89.255,VALID,0,VALID,17.9119,VALID,124,VALID,0,
2012-06-15, 01:04:04,VALID,917.77,VALID,0,VALID,89.659,VALID,0,VALID,17.7741,VALID,124,VALID,0,
2012-06-15, 01:05:04,VALID,917.785,VALID,0,VALID,90.2689,VALID,0,VALID,17.6767,VALID,124,VALID,0,
2012-06-15, 01:06:04,VALID,917.772,VALID,0,VALID,91.0312,VALID,0,VALID,17.6377,VALID,124,VALID,0,
2012-06-15, 01:07:04,VALID,917.756,VALID,0,VALID,91.1684,VALID,0,VALID,17.6377,VALID,124,VALID,0,
2012-06-15, 01:08:04,VALID,917.778,VALID,0,VALID,91.3285,VALID,0,VALID,17.6377,VALID,126,VALID,0,
2012-06-15, 01:09:04,VALID,917.767,VALID,0,VALID,91.1532,VALID,0,VALID,17.6377,VALID,126,VALID,0,
2012-06-15, 01:10:04,VALID,917.79,VALID,0,VALID,90.9092,VALID,0,VALID,17.6182,VALID,126,VALID,0,
2012-06-15, 01:11:04,VALID,917.83,VALID,0,VALID,91.0617,VALID,0,VALID,17.5584,VALID,124,VALID,0,
2012-06-15, 01:12:04,VALID,917.808,VALID,0,VALID,91.2904,VALID,0,VALID,17.5792,VALID,118,VALID,0,
2012-06-15, 01:13:04,VALID,917.781,VALID,0,VALID,91.3743,VALID,0,VALID,17.5403,VALID,114,VALID,0,
2012-06-15, 01:14:04,VALID,917.778,VALID,0,VALID,91.2447,VALID,0,VALID,17.5026,VALID,114,VALID,0,
2012-06-15, 01:15:04,VALID,917.763,VALID,0,VALID,91.2599,VALID,0,VALID,17.4428,VALID,114,VALID,0,
2012-06-15, 01:16:04,VALID,917.743,VALID,0,VALID,91.8393,VALID,0,VALID,17.3844,VALID,114,VALID,0,
2012-06-15, 01:17:04,VALID,917.691,VALID,0,VALID,92.2586,VALID,0,VALID,17.3844,VALID,114,VALID,0,
2012-06-15, 01:18:04,VALID,917.665,VALID,0,VALID,92.3196,VALID,0,VALID,17.4233,VALID,129,VALID,0,
2012-06-15, 01:19:04,VALID,917.666,VALID,0,VALID,92.1976,VALID,0,VALID,17.4831,VALID,132,VALID,0,
2012-06-15, 01:20:04,VALID,917.645,VALID,0,VALID,91.8164,VALID,0,VALID,17.5013,VALID,132,VALID,0,
2012-06-15, 01:21:04,VALID,917.638,VALID,0,VALID,91.8545,VALID,0,VALID,17.5208,VALID,132,VALID,0,
2012-06-15, 01:22:04,VALID,917.627,VALID,0,VALID,91.6945,VALID,0,VALID,17.5389,VALID,132,VALID,0,
2012-06-15, 01:23:04,VALID,917.621,VALID,0,VALID,91.6411,VALID,0,VALID,17.6182,VALID,132,VALID,0.163281,
2012-06-15, 01:24:04,VALID,917.616,VALID,0,VALID,91.4048,VALID,0,VALID,17.6182,VALID,120,VALID,0,
2012-06-15, 01:25:04,VALID,917.592,VALID,0,VALID,91.3895,VALID,0,VALID,17.6182,VALID,120,VALID,0,
2012-06-15, 01:26:04,VALID,917.573,VALID,0,VALID,91.5877,VALID,0,VALID,17.6182,VALID,131,VALID,0.0949219,
2012-06-15, 01:27:04,VALID,917.565,VALID,0,VALID,91.6106,VALID,0,VALID,17.6182,VALID,130,VALID,0,
2012-06-15, 01:28:04,VALID,917.548,VALID,0,VALID,91.6487,VALID,0,VALID,17.6182,VALID,132,VALID,0.259766,
2012-06-15, 01:29:04,VALID,917.53,VALID,0,VALID,91.6258,VALID,0,VALID,17.5987,VALID,138,VALID,0.00820312,
2012-06-15, 01:30:04,VALID,917.543,VALID,0,VALID,91.5344,VALID,0,VALID,17.6182,VALID,137,VALID,0,
2012-06-15, 01:31:04,VALID,917.498,VALID,0,VALID,91.3438,VALID,0,VALID,17.6767,VALID,139,VALID,0,
2012-06-15, 01:32:04,VALID,917.484,VALID,0,VALID,91.1074,VALID,0,VALID,17.6962,VALID,150,VALID,0,
2012-06-15, 01:33:04,VALID,917.437,VALID,0,VALID,90.8787,VALID,0,VALID,17.7157,VALID,149,VALID,0,
2012-06-15, 01:34:04,VALID,917.413,VALID,0,VALID,90.6577,VALID,0,VALID,17.7741,VALID,142,VALID,0,
2012-06-15, 01:35:04,VALID,917.409,VALID,0,VALID,90.4518,VALID,0,VALID,17.7741,VALID,144,VALID,0,
2012-06-15, 01:36:04,VALID,917.418,VALID,0,VALID,90.2841,VALID,0,VALID,17.8326,VALID,140,VALID,0,
2012-06-15, 01:37:04,VALID,917.354,VALID,0,VALID,90.1774,VALID,0,VALID,17.8521,VALID,140,VALID,0,
2012-06-15, 01:38:04,VALID,917.345,VALID,0,VALID,89.9411,VALID,0,VALID,17.8716,VALID,137,VALID,0,
2012-06-15, 01:39:04,VALID,917.312,VALID,0,VALID,89.8267,VALID,0,VALID,17.8716,VALID,139,VALID,0,
2012-06-15, 01:40:04,VALID,917.309,VALID,0,VALID,89.9258,VALID,0,VALID,17.8925,VALID,139,VALID,0,
2012-06-15, 01:41:04,VALID,917.279,VALID,0,VALID,89.9334,VALID,0,VALID,17.8925,VALID,139,VALID,0,
2012-06-15, 01:42:04,VALID,917.228,VALID,0,VALID,89.8572,VALID,0,VALID,17.8911,VALID,136,VALID,0,
2012-06-15, 01:43:04,VALID,917.232,VALID,0,VALID,89.7733,VALID,0,VALID,17.9106,VALID,150,VALID,0.0289063,
2012-06-15, 01:44:04,VALID,917.216,VALID,0,VALID,89.6895,VALID,0,VALID,17.9496,VALID,139,VALID,0,
2012-06-15, 01:45:04,VALID,917.234,VALID,0,VALID,89.598,VALID,0,VALID,17.9496,VALID,144,VALID,0,
2012-06-15, 01:46:04,VALID,917.255,VALID,0,VALID,89.5218,VALID,0,VALID,17.9496,VALID,143,VALID,0,
2012-06-15, 01:47:04,VALID,917.249,VALID,0,VALID,89.659,VALID,0,VALID,17.9301,VALID,141,VALID,0,
2012-06-15, 01:48:04,VALID,917.271,VALID,0,VALID,89.598,VALID,0,VALID,17.8716,VALID,141,VALID,0,
2012-06-15, 01:49:04,VALID,917.247,VALID,0,VALID,89.8953,VALID,0,VALID,17.8131,VALID,123,VALID,0,
2012-06-15, 01:50:04,VALID,917.237,VALID,0,VALID,90.1012,VALID,0,VALID,17.7741,VALID,131,VALID,0,
2012-06-15, 01:51:04,VALID,917.195,VALID,0,VALID,90.4061,VALID,0,VALID,17.7157,VALID,131,VALID,0,
2012-06-15, 01:52:04,VALID,917.207,VALID,0,VALID,90.6348,VALID,0,VALID,17.6767,VALID,136,VALID,0,
2012-06-15, 01:53:04,VALID,917.191,VALID,0,VALID,90.7263,VALID,0,VALID,17.6572,VALID,136,VALID,0,
2012-06-15, 01:54:04,VALID,917.17,VALID,0,VALID,90.772,VALID,0,VALID,17.6767,VALID,128,VALID,0,
2012-06-15, 01:55:04,VALID,917.173,VALID,0,VALID,90.7415,VALID,0,VALID,17.6572,VALID,130,VALID,0,
2012-06-15, 01:56:04,VALID,917.157,VALID,0,VALID,90.6424,VALID,0,VALID,17.6377,VALID,130,VALID,0,
2012-06-15, 01:57:04,VALID,917.144,VALID,0,VALID,90.7339,VALID,0,VALID,17.6377,VALID,130,VALID,0,
2012-06-15, 01:58:04,VALID,917.124,VALID,0,VALID,90.7568,VALID,0,VALID,17.6377,VALID,130,VALID,0,
2012-06-15, 01:59:04,VALID,917.106,VALID,0,VALID,90.6653,VALID,0,VALID,17.6377,VALID,130,VALID,0,
2012-06-15, 02:00:04,VALID,917.085,VALID,0,VALID,90.6805,VALID,0,VALID,17.6182,VALID,132,VALID,0,
2012-06-15, 02:01:04,VALID,917.068,VALID,0,VALID,90.5738,VALID,0,VALID,17.5792,VALID,132,VALID,0,
2012-06-15, 02:02:04,VALID,917.069,VALID,0,VALID,90.7491,VALID,0,VALID,17.5208,VALID,132,VALID,0,
2012-06-15, 02:03:04,VALID,917.057,VALID,0,VALID,91.1151,VALID,0,VALID,17.4818,VALID,123,VALID,0,
2012-06-15, 02:04:04,VALID,917.064,VALID,0,VALID,91.016,VALID,0,VALID,17.4428,VALID,116,VALID,0,
2012-06-15, 02:05:04,VALID,917.074,VALID,0,VALID,91.3514,VALID,0,VALID,17.4428,VALID,119,VALID,0,
2012-06-15, 02:06:04,VALID,917.048,VALID,0,VALID,91.077,VALID,0,VALID,17.5013,VALID,114,VALID,0,
2012-06-15, 02:07:04,VALID,917.062,VALID,0,VALID,90.9321,VALID,0,VALID,17.4818,VALID,117,VALID,0,
2012-06-15, 02:08:04,VALID,917.048,VALID,0,VALID,91.1532,VALID,0,VALID,17.4623,VALID,117,VALID,0,
2012-06-15, 02:09:04,VALID,917.043,VALID,0,VALID,91.1989,VALID,0,VALID,17.4428,VALID,146,VALID,0,
2012-06-15, 02:10:04,VALID,917.058,VALID,0,VALID,91.2218,VALID,0,VALID,17.3844,VALID,128,VALID,0,
2012-06-15, 02:11:04,VALID,917.021,VALID,0,VALID,91.4657,VALID,0,VALID,17.3259,VALID,125,VALID,0,
2012-06-15, 02:12:04,VALID,917.018,VALID,0,VALID,91.7173,VALID,0,VALID,17.2869,VALID,131,VALID,0,
2012-06-15, 02:13:04,VALID,917.003,VALID,0,VALID,91.6106,VALID,0,VALID,17.2285,VALID,129,VALID,0,
2012-06-15, 02:14:04,VALID,917.008,VALID,0,VALID,91.7021,VALID,0,VALID,17.1908,VALID,123,VALID,0,
2012-06-15, 02:15:04,VALID,916.962,VALID,0,VALID,91.9231,VALID,0,VALID,17.1115,VALID,123,VALID,0,
2012-06-15, 02:16:04,VALID,916.948,VALID,0,VALID,92.2814,VALID,0,VALID,17.092,VALID,123,VALID,0,
2012-06-15, 02:17:04,VALID,916.922,VALID,0,VALID,92.411,VALID,0,VALID,17.0933,VALID,133,VALID,0,
2012-06-15, 02:18:04,VALID,916.917,VALID,0,VALID,91.885,VALID,0,VALID,17.0739,VALID,122,VALID,0,
2012-06-15, 02:19:04,VALID,916.936,VALID,0,VALID,91.6106,VALID,0,VALID,17.0531,VALID,124,VALID,0,
2012-06-15, 02:20:04,VALID,916.977,VALID,0,VALID,91.6258,VALID,0,VALID,17.0544,VALID,129,VALID,0,
2012-06-15, 02:21:04,VALID,917.003,VALID,0,VALID,91.6563,VALID,0,VALID,17.0349,VALID,126,VALID,0,
2012-06-15, 02:22:04,VALID,917.007,VALID,0,VALID,91.542,VALID,0,VALID,17.0154,VALID,121,VALID,0,
2012-06-15, 02:23:04,VALID,916.987,VALID,0,VALID,91.5496,VALID,0,VALID,16.9751,VALID,116,VALID,0,
2012-06-15, 02:24:04,VALID,916.982,VALID,0,VALID,91.7935,VALID,0,VALID,16.9362,VALID,116,VALID,0,
2012-06-15, 02:25:04,VALID,916.958,VALID,0,VALID,91.9918,VALID,0,VALID,16.9167,VALID,119,VALID,0,
2012-06-15, 02:26:04,VALID,916.934,VALID,0,VALID,92.0909,VALID,0,VALID,16.8972,VALID,107,VALID,0,
2012-06-15, 02:27:04,VALID,916.934,VALID,0,VALID,92.2586,VALID,0,VALID,16.8777,VALID,107,VALID,0,
2012-06-15, 02:28:04,VALID,916.916,VALID,0,VALID,92.4263,VALID,0,VALID,16.7998,VALID,107,VALID,0,
2012-06-15, 02:29:04,VALID,916.923,VALID,0,VALID,92.3272,VALID,0,VALID,16.7803,VALID,107,VALID,0,
2012-06-15, 02:30:04,VALID,916.943,VALID,0,VALID,92.1214,VALID,0,VALID,16.7608,VALID,107,VALID,0,
2012-06-15, 02:31:04,VALID,916.961,VALID,0,VALID,91.8774,VALID,0,VALID,16.7218,VALID,107,VALID,0,
2012-06-15, 02:32:04,VALID,916.929,VALID,0,VALID,92.0299,VALID,0,VALID,16.7023,VALID,107,VALID,0,
2012-06-15, 02:33:04,VALID,916.905,VALID,0,VALID,92.068,VALID,0,VALID,16.6828,VALID,113,VALID,0,
2012-06-15, 02:34:04,VALID,916.872,VALID,0,VALID,91.8317,VALID,0,VALID,16.7218,VALID,117,VALID,0,
2012-06-15, 02:35:04,VALID,916.868,VALID,0,VALID,91.542,VALID,0,VALID,16.7218,VALID,113,VALID,0,
2012-06-15, 02:36:04,VALID,916.821,VALID,0,VALID,91.4352,VALID,0,VALID,16.7608,VALID,113,VALID,0,
2012-06-15, 02:37:04,VALID,916.834,VALID,0,VALID,91.2904,VALID,0,VALID,16.7998,VALID,121,VALID,0,
2012-06-15, 02:38:04,VALID,916.82,VALID,0,VALID,90.833,VALID,0.107441,VALID,16.8777,VALID,121,VALID,0,
2012-06-15, 02:39:04,VALID,916.801,VALID,0,VALID,90.4595,VALID,0,VALID,16.8972,VALID,112,VALID,0,
2012-06-15, 02:40:04,VALID,916.797,VALID,0,VALID,90.063,VALID,0,VALID,16.9582,VALID,129,VALID,0,
2012-06-15, 02:41:04,VALID,916.759,VALID,0,VALID,89.5446,VALID,0,VALID,17.0154,VALID,131,VALID,0,
2012-06-15, 02:42:04,VALID,916.765,VALID,0,VALID,89.0644,VALID,0,VALID,17.1128,VALID,133,VALID,0,
2012-06-15, 02:43:04,VALID,916.736,VALID,0,VALID,88.5002,VALID,0,VALID,17.1713,VALID,135,VALID,0,
2012-06-15, 02:44:04,VALID,916.745,VALID,0,VALID,88.2334,VALID,0,VALID,17.1713,VALID,137,VALID,0,
2012-06-15, 02:45:04,VALID,916.715,VALID,0,VALID,88.0809,VALID,0,VALID,17.1713,VALID,127,VALID,0,
2012-06-15, 02:46:04,VALID,916.696,VALID,0,VALID,88.3706,VALID,0,VALID,17.1128,VALID,127,VALID,0,
2012-06-15, 02:47:04,VALID,916.721,VALID,0,VALID,88.6451,VALID,0,VALID,17.0349,VALID,127,VALID,0,
2012-06-15, 02:48:04,VALID,916.714,VALID,0,VALID,88.8509,VALID,0,VALID,16.9764,VALID,113,VALID,0,
2012-06-15, 02:49:04,VALID,916.709,VALID,0,VALID,89.2092,VALID,0,VALID,16.9179,VALID,102,VALID,0,
2012-06-15, 02:50:04,VALID,916.721,VALID,0,VALID,89.3846,VALID,0,VALID,16.879,VALID,102,VALID,0,
2012-06-15, 02:51:04,VALID,916.691,VALID,0,VALID,89.5828,VALID,0,VALID,16.9179,VALID,102,VALID,0,
2012-06-15, 02:52:04,VALID,916.703,VALID,0,VALID,89.5904,VALID,0,VALID,16.9179,VALID,114,VALID,0,
2012-06-15, 02:53:04,VALID,916.69,VALID,0,VALID,89.4989,VALID,0,VALID,16.9179,VALID,123,VALID,0,
2012-06-15, 02:54:04,VALID,916.648,VALID,0,VALID,89.5218,VALID,0,VALID,16.9167,VALID,122,VALID,0,
2012-06-15, 02:55:04,VALID,916.668,VALID,0,VALID,89.5294,VALID,0,VALID,16.9167,VALID,122,VALID,0,
2012-06-15, 02:56:04,VALID,916.641,VALID,0,VALID,89.5675,VALID,0,VALID,16.8972,VALID,122,VALID,0,
2012-06-15, 02:57:04,VALID,916.648,VALID,0,VALID,89.781,VALID,0,VALID,16.8972,VALID,125,VALID,0,
2012-06-15, 02:58:04,VALID,916.682,VALID,0,VALID,89.6285,VALID,0.107441,VALID,16.9751,VALID,133,VALID,0,
2012-06-15, 02:59:04,VALID,916.683,VALID,0,VALID,89.2473,VALID,0,VALID,16.9946,VALID,137,VALID,0.0597656,
2012-06-15, 03:00:04,VALID,916.685,VALID,0,VALID,88.9043,VALID,0,VALID,17.0336,VALID,131,VALID,0,
2012-06-15, 03:01:04,VALID,916.691,VALID,0,VALID,88.6984,VALID,0,VALID,17.092,VALID,130,VALID,0.231641,
2012-06-15, 03:02:04,VALID,916.69,VALID,0,VALID,88.546,VALID,0.107441,VALID,17.092,VALID,124,VALID,0,
2012-06-15, 03:03:04,VALID,916.698,VALID,0,VALID,88.3783,VALID,0,VALID,17.092,VALID,125,VALID,0,
2012-06-15, 03:04:04,VALID,916.685,VALID,0,VALID,88.1801,VALID,0,VALID,17.1115,VALID,125,VALID,0,
2012-06-15, 03:05:04,VALID,916.728,VALID,0,VALID,88.0428,VALID,0,VALID,17.092,VALID,126,VALID,0,
2012-06-15, 03:06:04,VALID,916.708,VALID,0,VALID,88.0809,VALID,0,VALID,17.1323,VALID,123,VALID,0,
2012-06-15, 03:07:04,VALID,916.707,VALID,0,VALID,88.2258,VALID,0,VALID,17.092,VALID,127,VALID,0,
2012-06-15, 03:08:04,VALID,916.676,VALID,0,VALID,88.3859,VALID,0,VALID,17.1115,VALID,131,VALID,0,
2012-06-15, 03:09:04,VALID,916.674,VALID,0,VALID,88.5002,VALID,0,VALID,17.0933,VALID,135,VALID,0,
2012-06-15, 03:10:04,VALID,916.681,VALID,0,VALID,88.7213,VALID,0,VALID,17.1128,VALID,129,VALID,0,
2012-06-15, 03:11:04,VALID,916.651,VALID,0,VALID,88.6756,VALID,0,VALID,17.0933,VALID,131,VALID,0,
2012-06-15, 03:12:04,VALID,916.656,VALID,0,VALID,88.7975,VALID,0,VALID,17.0739,VALID,130,VALID,0,
2012-06-15, 03:13:04,VALID,916.633,VALID,0,VALID,88.9424,VALID,0,VALID,17.0336,VALID,130,VALID,0,
2012-06-15, 03:14:04,VALID,916.648,VALID,0,VALID,89.3236,VALID,0,VALID,17.0349,VALID,130,VALID,0,
2012-06-15, 03:15:04,VALID,916.664,VALID,0,VALID,89.5294,VALID,0,VALID,17.0154,VALID,130,VALID,0,
2012-06-15, 03:16:04,VALID,916.663,VALID,0,VALID,89.8648,VALID,0,VALID,16.9764,VALID,136,VALID,0,
2012-06-15, 03:17:04,VALID,916.656,VALID,0,VALID,90.368,VALID,0,VALID,16.9959,VALID,142,VALID,0,
2012-06-15, 03:18:04,VALID,916.669,VALID,0,VALID,90.4518,VALID,0,VALID,16.9959,VALID,140,VALID,0,
2012-06-15, 03:19:04,VALID,916.657,VALID,0,VALID,90.5738,VALID,0,VALID,16.9959,VALID,139,VALID,0,
2012-06-15, 03:20:04,VALID,916.641,VALID,0,VALID,90.8635,VALID,0,VALID,17.0349,VALID,133,VALID,0,
2012-06-15, 03:21:04,VALID,916.63,VALID,0,VALID,90.894,VALID,0,VALID,17.0336,VALID,134,VALID,0,
2012-06-15, 03:22:04,VALID,916.663,VALID,0,VALID,90.7415,VALID,0,VALID,17.0544,VALID,137,VALID,0,
2012-06-15, 03:23:04,VALID,916.638,VALID,0,VALID,90.6882,VALID,0,VALID,17.0336,VALID,139,VALID,0,
2012-06-15, 03:24:04,VALID,916.667,VALID,0,VALID,90.7263,VALID,0,VALID,17.0349,VALID,137,VALID,0,
2012-06-15, 03:25:04,VALID,916.666,VALID,0,VALID,90.7796,VALID,0,VALID,17.0349,VALID,136,VALID,0,
2012-06-15, 03:26:04,VALID,916.602,VALID,0,VALID,91.0846,VALID,0,VALID,17.0336,VALID,136,VALID,0,
2012-06-15, 03:27:04,VALID,916.62,VALID,0,VALID,91.0617,VALID,0,VALID,17.0531,VALID,139,VALID,0,
2012-06-15, 03:28:04,VALID,916.618,VALID,0,VALID,91.0312,VALID,0,VALID,17.092,VALID,140,VALID,0,
2012-06-15, 03:29:04,VALID,916.577,VALID,0,VALID,91.0236,VALID,0,VALID,17.1323,VALID,137,VALID,0,
2012-06-15, 03:30:04,VALID,916.601,VALID,0,VALID,90.9473,VALID,0,VALID,17.1505,VALID,135,VALID,0,
2012-06-15, 03:31:04,VALID,916.541,VALID,0,VALID,90.9092,VALID,0,VALID,17.1895,VALID,133,VALID,0,
2012-06-15, 03:32:04,VALID,916.568,VALID,0,VALID,90.7796,VALID,0,VALID,17.2298,VALID,130,VALID,0.288672,
2012-06-15, 03:33:04,VALID,916.544,VALID,0,VALID,90.8711,VALID,0,VALID,17.2492,VALID,136,VALID,0.707031,
2012-06-15, 03:34:04,VALID,916.546,VALID,0,VALID,90.894,VALID,0,VALID,17.2674,VALID,135,VALID,0,
2012-06-15, 03:35:04,VALID,916.576,VALID,0,VALID,90.9092,VALID,0,VALID,17.3077,VALID,136,VALID,0,
2012-06-15, 03:36:04,VALID,916.543,VALID,0,VALID,90.9702,VALID,0,VALID,17.3077,VALID,138,VALID,0.263281,
2012-06-15, 03:37:04,VALID,916.55,VALID,0,VALID,90.9321,VALID,0,VALID,17.3259,VALID,134,VALID,0,
2012-06-15, 03:38:04,VALID,916.542,VALID,0,VALID,90.8864,VALID,0,VALID,17.3675,VALID,124,VALID,0,
2012-06-15, 03:39:04,VALID,916.541,VALID,0,VALID,90.8711,VALID,0.107441,VALID,17.4038,VALID,132,VALID,0,
2012-06-15, 03:40:04,VALID,916.477,VALID,0,VALID,90.7568,VALID,0.107441,VALID,17.4233,VALID,137,VALID,0,
2012-06-15, 03:41:04,VALID,916.447,VALID,0,VALID,90.8025,VALID,0.107441,VALID,17.383,VALID,138,VALID,0,
2012-06-15, 03:42:04,VALID,916.443,VALID,0,VALID,90.7187,VALID,0,VALID,17.422,VALID,141,VALID,0,
2012-06-15, 03:43:04,VALID,916.45,VALID,0,VALID,90.6958,VALID,0.107441,VALID,17.5013,VALID,135,VALID,0,
2012-06-15, 03:44:04,VALID,916.389,VALID,0,VALID,90.3222,VALID,0.107441,VALID,17.5194,VALID,133,VALID,0,
2012-06-15, 03:45:04,VALID,916.378,VALID,0,VALID,90.1774,VALID,0,VALID,17.5598,VALID,130,VALID,0,
2012-06-15, 03:46:04,VALID,916.385,VALID,0,VALID,90.0249,VALID,0.107441,VALID,17.5792,VALID,126,VALID,0,
2012-06-15, 03:47:04,VALID,916.381,VALID,0,VALID,90.0325,VALID,0,VALID,17.5584,VALID,131,VALID,0,
2012-06-15, 03:48:04,VALID,916.379,VALID,0,VALID,90.0021,VALID,0,VALID,17.5792,VALID,129,VALID,0,
2012-06-15, 03:49:04,VALID,916.394,VALID,0,VALID,90.0402,VALID,0,VALID,17.5403,VALID,120,VALID,0,
2012-06-15, 03:50:04,VALID,916.391,VALID,0,VALID,90.0173,VALID,0.107441,VALID,17.5013,VALID,132,VALID,0,
2012-06-15, 03:51:04,VALID,916.379,VALID,0,VALID,90.1164,VALID,0,VALID,17.461,VALID,115,VALID,0,
2012-06-15, 03:52:04,VALID,916.401,VALID,0,VALID,90.2612,VALID,0,VALID,17.4415,VALID,100,VALID,0,
2012-06-15, 03:53:04,VALID,916.388,VALID,0,VALID,90.4899,VALID,0,VALID,17.4428,VALID,115,VALID,0,
2012-06-15, 03:54:04,VALID,916.375,VALID,0,VALID,90.368,VALID,0,VALID,17.3844,VALID,118,VALID,0,
2012-06-15, 03:55:04,VALID,916.366,VALID,0,VALID,90.6729,VALID,0,VALID,17.3844,VALID,119,VALID,0,
2012-06-15, 03:56:04,VALID,916.369,VALID,0,VALID,90.833,VALID,0,VALID,17.3649,VALID,122,VALID,0,
2012-06-15, 03:57:04,VALID,916.368,VALID,0,VALID,90.833,VALID,0,VALID,17.3649,VALID,122,VALID,0,
2012-06-15, 03:58:04,VALID,916.314,VALID,0,VALID,90.9016,VALID,0,VALID,17.3844,VALID,127,VALID,0,